Location: Mahannah Oil Field
(37.4664°N, 96.6003°W)
Time: 10:52:03
(UTC+00:00)

Altair - Pass Details

Date: 30 January 2021
Orbit: 1501 x 1682 km, 47.2° (Epoch: 24 February)

Event Time Altitude Azimuth Distance (km) Brightness Sun altitude
Exits shadow 08:36:37 22° 74° (ENE) 3,047 9.2 -57.6°
Drops below altitude 10° 08:39:47 10° 65° (ENE) 3,927 10.0 -57.0°
Sets 08:43:07 0° 60° (ENE) 4,929 10.7 -56.4°
